Regional Weather Roundup
Issued by NWS

Home | Current Version | Previous Version | Graphics & Text | Print | Product List | Glossary On
Versions: 1 2 3 4 5 6 7 8 9 10 11 12 13 14 15 16 17 18 19 20 21 22 23 24 25 26 27
000
ASUS45 KBOU 220906
RWRCO

WEATHER ROUNDUP FOR COLORADO
NATIONAL WEATHER SERVICE DENVER/BOULDER CO
300 AM MDT TUE APR 22 2014

NOTE: "FAIR" INDICATES FEW OR NO CLOUDS BELOW 12000 FEET WITH NO
SIGNIFICANT WEATHER AND/OR OBSTRUCTIONS TO VISIBILITY.

COZ001>005-013-030-031-221000-
...NORTHWEST COLORADO...

CITY           SKY/WX    TMP DP  RH WIND       PRES   REMARKS
CRAIG          PTCLDY    37  31  78 W5        30.08F
HAYDEN         PTCLDY    45  27  49 E15       30.12F
MEEKER         MOCLDY    41  32  70 NE6       30.09F
MOUNT WERNER   PTCLDY    43  16  33 S14G22    30.30F
STEAMBOAT SPGS PTCLDY    38  26  61 CALM      30.13F
WALDEN         CLEAR     30  23  74 E6        30.18F WCI  24
$$

COZ006>008-011-221000-
...WEST CENTRAL VALLEYS...

CITY           SKY/WX    TMP DP  RH WIND       PRES   REMARKS
GRAND JUNCTION CLEAR     55  31  39 E18       30.01F
MONTROSE       CLEAR     54  28  36 SE13      30.11F
EAGLE          CLEAR     37  28  70 CALM      30.19F
RIFLE          PTCLDY    42  31  64 SE5       30.09F
DELTA          NOT AVBL
NUCLA          NOT AVBL
$$

COZ017>023-064>068-221000-
...SOUTHWEST COLORADO...

CITY           SKY/WX    TMP DP  RH WIND       PRES   REMARKS
DURANGO        PTCLDY    38  25  59 E6        30.19S
CORTEZ         CLEAR     37  28  70 CALM      30.12F
PAGOSA SPRINGS MOCLDY    40  25  54 CALM      30.25S
TELLURIDE      CLEAR     43  27  52 SE7       30.28F
WOLF CREEK PAS MOCLDY    34  21  60 SW18      30.42F WCI  23
$$

COZ009-010-012-014-032>034-037-058>063-221000-
...CENTRAL COLORADO...

CITY           SKY/WX    TMP DP  RH WIND       PRES   REMARKS
ASPEN          CLEAR     37  27  67 NW3       30.19F
BUENA VISTA    CLEAR     34  30  84 W6        30.26F WCI  29
COPPER MTN     PTCLDY    37  21  52 S14G20    30.38F
BERTHOUD PASS  FAIR      32  21  64 W29G38    30.37F WCI  18
COTTONWOOD PAS CLEAR     41  32  70 CALM      30.31F
GUNNISON       CLEAR     34  25  69 CALM      30.29S
KREMMLING      CLEAR     32  27  80 CALM      30.22S
LEADVILLE      CLEAR     28  23  81 NE6       30.31F WCI  22
MONARCH PASS   CLEAR     32  19  59 SW17      30.50F WCI  21
SALIDA         CLEAR     39  31  70 W7        30.32F
SUNLIGHT       CLEAR     39  28  65 CALM      30.33F
WILKERSON PASS PTCLDY    32  30  93 SW9       30.37F WCI  24
$$

COZ069>075-221000-
...SAN LUIS VALLEY/SANGRE DE CRISTO MOUNTAINS...

CITY           SKY/WX    TMP DP  RH WIND       PRES   REMARKS
ALAMOSA        CLEAR     39  30  70 W5        30.23F
LA VETA PASS   PTCLDY    36  32  87 SW13G20   30.33S
SAGUACHE       CLEAR     41  23  48 N8        30.26S
$$

COZ035-036-038>040-221000-
...NORTHERN COLORADO FRONT RANGE...

CITY           SKY/WX    TMP DP  RH WIND       PRES   REMARKS
DENVER INTL AP PTCLDY    52  31  44 S17       30.06F
DMNS CITY PARK   N/A     55  34  44 S10       30.06F
AURORA         PTCLDY    52  32  46 S20       30.08F
FRONT RANGE AP NOT AVBL
ERIE MUNI ARPT PTCLDY    43  39  88 S3        30.07F
BOULDER MUN AP PTCLDY    46  37  71 CALM      30.07S
CENTENNIAL     PTCLDY    49  31  49 S13       30.10F
BROOMFIELD     PTCLDY    48  37  66 CALM      30.08F
FORT COLLINS   PTCLDY    41  34  75 N5        30.08F
LONGMONT       NOT AVBL
$$

COZ041-046-047-076>085-087-088-221000-
...PIKES PEAK/PALMER DIVIDE AND SOUTHERN FOOTHILLS...

CITY           SKY/WX    TMP DP  RH WIND       PRES   REMARKS
COLO. SPRINGS  PTCLDY    41  32  70 N5        30.18F
A. F. ACADEMY  PTCLDY    37  30  77 N6        30.18F
ELLICOTT       NOT AVBL
FALCON         PTCLDY    43  33  68 S3        30.20F
FORT CARSON    CLEAR     42  31  65 NW6       30.15F
LIMON          CLEAR     44  35  70 SE10      30.16F
MONUMENT HILL  CLEAR     43  36  75 S12       30.17F
TRINIDAD       PTCLDY    53  40  61 SW15      30.17F
$$

COZ042>045-048>051-090-091-221000-
...NORTHEAST COLORADO...

CITY           SKY/WX    TMP DP  RH WIND       PRES   REMARKS
GREELEY ARPT   PTCLDY    43  30  61 SE3       30.06F
AKRON          PTCLDY    46  32  58 SE14      30.10F
BURLINGTON     PTCLDY    44  31  60 S14       30.15F
WRAY           PTCLDY    48  33  55 SE3       30.12F
STERLING       NOT AVBL
HOLYOKE        NOT AVBL
FORT MORGAN    NOT AVBL
$$

COZ086-089-092>099-221000-
...SOUTHEAST COLORADO...

CITY           SKY/WX    TMP DP  RH WIND       PRES   REMARKS
PUEBLO         PTCLDY    47  38  71 N3        30.12F
LA JUNTA       PTCLDY    53  40  61 SE13      30.13F
LAMAR          CLEAR     47  35  63 VRB3      30.14S
SPRINGFIELD      N/A     44  39  82 S8        30.18F
$$



USA.gov is the U.S. government's official web portal to all federal, state and local government web resources and services.